Overview Statistics Trail Chart Weather Telemetry Raw packets
 

This is the latest recevied weather packets stored in our database for station/object KB0BDN-13. If no packets are shown the sender has not sent any weather packets the latest 10 day(s).

<< 18 19 20 21 22 23 24 >>
Time Temp. Humidity Pressure Rain* Wind** Luminosity Snow
1788458494 24.44° C 60% 1007.1 hPa 0 mm - - -
1788458352 24.44° C 61% 1007.3 hPa 0 mm - - -
1788457598 23.89° C 64% 1007.3 hPa 0 mm - - -
1788457451 23.89° C 63% 1007.7 hPa 0 mm - - -
1788456698 22.78° C 65% 1007.7 hPa 0 mm - - -
1788456551 22.78° C 63% 1007.7 hPa 0 mm - - -
1788455798 22.78° C 65% 1007.7 hPa 0 mm - - -
1788455651 22.78° C 65% 1007.7 hPa 0 mm - - -
1788454897 23.33° C 63% 1007.7 hPa 0 mm - - -
1788454751 23.33° C 65% 1007.8 hPa 0 mm - - -
1788453997 23.33° C 64% 1007.8 hPa 0 mm - - -
1788453851 23.33° C 63% 1008.2 hPa 0 mm - - -
1788453097 23.33° C 64% 1008.2 hPa 0 mm - - -
1788452951 23.33° C 64% 1008.3 hPa 0 mm - - -
1788452197 23.33° C 64% 1008.3 hPa 0 mm - - -
1788452051 23.33° C 64% 1008.4 hPa 0 mm - - -
1788451297 23.33° C 65% 1008.4 hPa 0 mm - - -
1788451151 23.33° C 65% 1008.5 hPa 0 mm - - -
1788450397 22.78° C 68% 1008.5 hPa 0 mm - - -
1788450251 22.78° C 67% 1008.6 hPa 0 mm - - -
1788449497 22.22° C 69% 1008.6 hPa 0 mm - - -
1788449351 22.22° C 69% 1008.5 hPa 0 mm - - -
1788448597 21.67° C 72% 1008.5 hPa 0 mm - - -
1788448451 21.67° C 72% 1008.6 hPa 0 mm - - -
1788447697 21.11° C 75% 1008.6 hPa 0 mm - - -

* Rain latest hour (hover to see other rain measurements)
** Current wind speed in m/s (hover to see current wind gust speed)